sat.trackr.live / text

‹ back to catalog

STARLINK-31328

NORAD 58880 · 2024-020E

PAYLOAD ACTIVE UNKNOWN

§ Identity

Operator
Country
US
Launch date
2024-01-29
Launch site
AFWTR
Launch vehicle
Mass (kg)
RCS (m²)

Purposes: comms

External: N2YO · Heavens-Above · Gunter

§ Orbital elements

Epoch: 2026-09-20T02:35:55.837824Z

Period
93.85 min
Inclination
53.1610°
Eccentricity
0.0001123
Mean motion
15.34399338 rev/d
Perigee alt
461.9 km
Apogee alt
463.5 km
Semi-major
6,840.8 km
B*
6.4067e-5
RAAN
123.2209°
Arg perigee
102.9450°
Mean anomaly
257.1678°
Rev number
14,806

§ Raw data

STARLINK-313281 58880U 24020E   26263.10828516  .00001789  00000+0  64067-4 0  99982 58880  53.1610 123.2209 0001123 102.9450 257.1678 15.34399338148067

JSON: /api/v1/satellites/58880 · /tle

For live sub-satellite position, see the globe view (requires WebGL).

§ Visibility from observer

Set your observer location to see the next 7 days of passes ≥ 10°. The values pass through the URL so the page stays shareable.

No JS? Fill the form by hand. The geolocation button needs JavaScript.